Temp
15 15 16 16 16 17 17 17 18 19 20 21 21 22 22 23 24 24 25 26 25 26 25 24 24 23 21 21 22 22 20 21 24 23 23 22 21 22 21 20 20 20 20 19 18
15 15 15 16 16 16 17 17 17 18 19 20 20 21 21 22 23 25 26 25 25 25 25 25 24 23 22 22 23 21 19 23 23 24 22 22 22 21 20 21 19 19 19 19 18
14 15 15 15 15 16 16 17 17 17 18 18 20 20 21 21 22 25 25 25 26 25 24 25 24 24 22 23 23 22 22 24 26 26 24 23 22 22 20 20 19 18 19 18 18
14 14 15 15 15 15 16 16 17 17 18 18 18 19 20 20 20 25 25 25 25 23 23 23 23 24 22 22 25 24 24 26 26 25 24 22 22 22 22 22 22 21 21 19 18
14 14 14 15 15 15 16 16 17 17 17 18 18 18 18 19 22 25 25 25 25 24 23 23 24 24 23 23 25 24 25 26 27 25 24 23 22 22 22 22 22 20 19 18 18
14 14 14 15 15 16 16 17 17 17 18 18 18 18 17 15 25 24 25 25 25 25 24 23 25 26 25 25 25 27 26 25 26 25 24 22 22 22 21 21 20 19 18 18 18
13 14 14 15 15 16 17 17 17 18 18 18 18 17 16 21 24 24 24 24 24 25 24 24 25 25 25 25 27 27 25 25 25 24 23 23 22 22 21 20 19 18 18 17 18
13 13 14 14 15 16 17 17 18 18 19 19 18 17 16 23 23 24 24 24 23 23 24 24 24 24 24 26 25 26 24 24 25 24 23 24 22 20 20 20 19 18 18 18 19
13 13 14 14 15 16 16 17 18 17 18 18 17 16 18 21 22 24 24 25 25 24 23 23 23 24 24 23 22 21 23 25 25 25 23 23 22 20 20 20 19 19 19 19 19
12 13 13 14 15 15 16 17 16 16 15 15 14 15 20 22 22 23 24 24 24 25 22 23 23 19 18 20 22 24 24 24 24 25 24 23 22 20 19 19 19 19 19 19 19
11 12 13 14 14 15 15 16 15 15 14 15 16 16 20 21 22 23 23 23 23 24 20 22 19 18 20 22 24 24 25 24 25 26 25 22 21 20 20 20 19 19 19 20 20
11 11 12 14 14 15 14 13 10 9 8 16 17 17 19 19 18 22 22 23 22 20 19 19 18 20 21 23 24 25 26 26 27 26 25 23 23 21 20 20 20 20 20 20 21
10 10 11 13 14 13 13 11 11 11 8 15 18 18 20 20 18 22 21 23 20 19 18 18 21 22 23 23 24 24 24 25 26 25 24 24 23 20 21 21 21 21 21 20 22
9 10 10 12 13 13 13 12 12 12 9 13 16 18 18 20 17 23 23 24 21 20 18 20 22 22 22 23 23 22 23 25 26 24 23 25 22 21 20 20 21 21 21 21 21
9 10 10 11 11 12 13 13 13 12 12 19 17 19 19 21 22 20 24 23 20 20 19 20 20 21 22 24 23 24 24 25 25 24 23 24 22 22 21 20 21 22 22 21 22
9 10 10 9 9 11 13 14 13 11 11 18 19 18 18 19 20 20 22 24 24 21 21 21 23 22 22 24 24 25 23 21 19 20 21 22 23 23 20 22 23 23 23 22 22
9 9 10 9 8 10 12 13 10 10 15 16 15 15 16 18 20 20 20 20 20 19 19 21 22 24 24 24 24 22 21 19 21 21 21 21 21 25 25 24 25 24 24 23 23
9 9 9 7 9 10 11 8 8 12 13 14 14 14 15 18 19 21 20 20 20 19 17 18 20 22 23 23 21 21 20 18 22 20 22 20 22 26 27 27 29 28 27 25 24
7 9 8 8 9 10 10 6 8 11 13 13 13 14 14 15 15 21 19 22 22 19 19 18 20 23 23 23 23 21 21 21 19 18 21 21 22 25 27 26 26 26 26 26 25
6 8 7 8 9 9 5 6 7 11 12 12 12 12 12 13 15 17 18 22 21 20 20 19 20 21 22 25 23 22 20 22 16 19 22 21 23 24 28 27 26 25 26 26 28
6 6 7 8 8 7 4 4 8 11 11 11 11 11 12 13 14 15 18 19 21 20 20 17 19 21 22 22 20 21 20 17 18 18 20 21 23 21 24 25 25 25 27 28 28
3 1 6 7 5 2 2 3 6 9 12 11 11 11 11 13 12 15 16 18 17 19 22 19 17 19 20 23 22 21 21 20 19 20 17 20 26 26 23 24 25 26 27 28 30
2 2 6 6 2 3 5 4 5 8 9 10 10 12 12 12 13 14 16 17 16 16 20 19 16 17 22 21 21 22 20 18 17 16 18 22 26 25 24 24 29 28 28 28 28
2 -0 4 4 4 4 4 5 5 7 8 9 9 10 9 11 11 12 14 16 15 15 17 17 15 22 21 21 19 22 21 20 21 20 19 19 25 26 28 27 26 30 32 30 30
2 0 1 -0 1 0 3 3 4 6 6 7 8 8 8 8 10 11 12 12 15 14 13 15 19 19 21 23 22 23 22 20 21 20 24 24 22 23 24 26 26 30 32 33 33
2 2 1 0 0 1 3 4 4 4 4 7 7 8 8 10 10 9 8 11 12 12 11 10 18 20 20 21 22 23 22 22 22 21 23 23 22 21 26 29 28 32 32 32 32
1 1 1 1 -0 1 3 3 4 3 4 5 7 6 7 10 9 8 9 10 8 9 10 11 13 17 21 19 21 21 21 21 21 21 22 22 23 22 24 23 27 33 33 34 35
Height
1524 1522 1519 1516 1514 1511 1509 1507 1505 1504 1502 1501 1499 1497 1495 1493 1492 1490 1488 1491 1492 1493 1494 1496 1498 1498 1500 1501 1502 1503 1509 1514 1503 1505 1503 1503 1506 1510 1511 1513 1516 1518 1518 1523 1528
1524 1521 1518 1515 1512 1509 1507 1504 1502 1500 1498 1497 1496 1495 1493 1491 1488 1485 1486 1484 1486 1488 1490 1492 1494 1497 1500 1500 1501 1502 1511 1501 1492 1492 1496 1501 1503 1507 1511 1514 1516 1517 1519 1525 1531
1522 1519 1516 1513 1510 1507 1504 1501 1499 1496 1494 1493 1492 1491 1491 1490 1487 1481 1482 1481 1482 1484 1489 1492 1494 1497 1499 1499 1498 1499 1501 1489 1487 1488 1493 1499 1504 1507 1510 1515 1512 1513 1518 1524 1530
1522 1518 1515 1511 1507 1504 1501 1498 1495 1493 1491 1489 1488 1488 1488 1489 1493 1479 1480 1480 1482 1484 1487 1490 1493 1496 1497 1496 1492 1497 1487 1487 1486 1489 1494 1498 1502 1506 1509 1509 1510 1513 1513 1519 1527
1521 1517 1513 1509 1505 1501 1497 1494 1491 1489 1487 1485 1484 1484 1485 1484 1475 1479 1479 1479 1481 1484 1485 1488 1491 1493 1494 1492 1491 1492 1484 1480 1484 1488 1493 1497 1502 1505 1508 1507 1509 1516 1521 1522 1526
1518 1515 1510 1506 1502 1498 1494 1490 1486 1483 1481 1480 1480 1480 1481 1481 1472 1473 1474 1475 1477 1481 1484 1486 1488 1490 1490 1489 1489 1485 1483 1480 1483 1490 1496 1499 1504 1507 1510 1509 1512 1515 1521 1525 1527
1516 1512 1507 1503 1499 1494 1489 1485 1480 1477 1475 1474 1475 1475 1474 1463 1467 1469 1470 1472 1475 1478 1481 1484 1487 1488 1488 1487 1486 1484 1487 1485 1488 1492 1498 1501 1510 1507 1507 1510 1514 1517 1521 1527 1530
1515 1510 1505 1500 1495 1490 1485 1480 1475 1471 1469 1468 1469 1471 1464 1459 1460 1462 1467 1471 1474 1478 1481 1483 1486 1487 1487 1486 1485 1487 1489 1502 1491 1493 1498 1502 1509 1505 1506 1509 1514 1518 1522 1525 1528
1512 1508 1502 1497 1492 1486 1482 1476 1471 1468 1465 1464 1466 1468 1458 1453 1451 1455 1459 1464 1469 1475 1479 1482 1484 1485 1485 1489 1497 1496 1507 1501 1496 1491 1496 1502 1505 1502 1505 1509 1513 1516 1520 1524 1527
1511 1505 1499 1495 1489 1483 1478 1474 1470 1467 1465 1464 1464 1468 1453 1450 1449 1450 1453 1458 1465 1470 1478 1481 1482 1486 1488 1493 1511 1500 1499 1497 1499 1490 1493 1500 1501 1501 1504 1508 1510 1513 1517 1521 1524
1510 1504 1498 1492 1487 1482 1477 1473 1473 1468 1465 1460 1459 1451 1447 1448 1448 1449 1450 1453 1461 1466 1474 1476 1486 1491 1482 1477 1477 1483 1489 1495 1489 1484 1492 1499 1501 1501 1506 1509 1511 1512 1514 1516 1518
1509 1503 1497 1491 1485 1482 1479 1477 1483 1485 1465 1452 1448 1445 1444 1447 1450 1446 1448 1451 1456 1465 1468 1479 1486 1478 1477 1477 1477 1481 1487 1492 1485 1483 1490 1498 1501 1503 1503 1502 1505 1508 1509 1510 1515
1507 1501 1494 1490 1484 1482 1481 1481 1481 1478 1472 1439 1433 1431 1431 1440 1441 1440 1445 1445 1449 1460 1466 1478 1471 1471 1474 1479 1482 1485 1489 1490 1490 1487 1490 1495 1504 1503 1499 1502 1503 1503 1505 1509 1509
1506 1500 1494 1487 1486 1483 1482 1481 1479 1475 1475 1441 1428 1421 1423 1428 1431 1430 1438 1441 1446 1455 1463 1470 1464 1468 1474 1478 1478 1494 1477 1482 1486 1496 1514 1492 1524 1502 1495 1494 1495 1495 1497 1500 1504
1505 1499 1494 1488 1485 1482 1481 1479 1477 1476 1490 1424 1422 1421 1420 1422 1418 1418 1429 1436 1441 1446 1455 1464 1461 1467 1473 1466 1470 1480 1472 1479 1483 1495 1500 1502 1517 1498 1489 1492 1486 1483 1489 1492 1495
1503 1498 1492 1488 1483 1481 1477 1476 1477 1486 1482 1429 1422 1423 1424 1421 1417 1419 1424 1431 1435 1443 1447 1452 1451 1456 1459 1459 1463 1466 1476 1486 1496 1504 1526 1505 1510 1495 1493 1474 1469 1476 1479 1482 1487
1501 1495 1490 1486 1483 1478 1476 1476 1487 1486 1444 1438 1436 1431 1428 1421 1417 1415 1419 1426 1437 1457 1460 1452 1452 1448 1449 1459 1462 1468 1486 1522 1523 1525 1528 1500 1511 1482 1461 1460 1458 1459 1464 1470 1476
1498 1493 1487 1485 1482 1477 1476 1479 1490 1462 1454 1441 1439 1432 1430 1417 1414 1410 1417 1423 1424 1432 1454 1463 1471 1449 1443 1449 1463 1470 1479 1512 1522 1532 1514 1502 1508 1469 1452 1451 1450 1451 1453 1462 1468
1494 1489 1486 1482 1479 1476 1477 1490 1478 1466 1459 1453 1442 1437 1433 1423 1423 1409 1413 1410 1409 1417 1444 1458 1457 1435 1437 1440 1446 1470 1483 1474 1502 1512 1512 1501 1485 1457 1446 1445 1446 1445 1450 1451 1456
1490 1484 1484 1480 1477 1475 1478 1479 1471 1462 1461 1457 1455 1447 1446 1435 1427 1418 1413 1401 1410 1411 1413 1434 1456 1435 1434 1437 1443 1451 1459 1485 1504 1523 1518 1505 1493 1482 1453 1449 1442 1440 1441 1443 1447
1491 1484 1482 1479 1474 1474 1480 1477 1465 1459 1462 1461 1457 1455 1446 1441 1432 1426 1415 1407 1403 1408 1412 1426 1437 1440 1434 1438 1449 1455 1464 1475 1481 1497 1512 1517 1491 1454 1452 1446 1443 1435 1434 1436 1441
1493 1492 1483 1478 1478 1479 1480 1477 1469 1459 1456 1456 1453 1452 1449 1443 1439 1430 1422 1413 1409 1406 1412 1416 1435 1448 1443 1427 1428 1438 1450 1456 1484 1496 1502 1497 1469 1436 1440 1439 1440 1433 1431 1431 1436
1495 1490 1485 1480 1488 1484 1478 1476 1470 1461 1456 1453 1452 1448 1446 1444 1444 1431 1421 1413 1412 1411 1410 1412 1434 1455 1441 1439 1434 1438 1443 1450 1462 1474 1492 1494 1460 1436 1436 1436 1433 1431 1429 1430 1437
1498 1496 1487 1485 1486 1485 1481 1474 1470 1462 1458 1454 1452 1448 1449 1442 1438 1433 1426 1416 1413 1414 1412 1410 1425 1422 1439 1435 1436 1440 1441 1445 1449 1475 1481 1476 1456 1442 1435 1434 1430 1429 1427 1429 1433
1502 1500 1498 1494 1488 1487 1484 1479 1472 1466 1460 1454 1451 1452 1452 1450 1441 1436 1432 1427 1416 1415 1413 1413 1417 1418 1419 1418 1424 1429 1435 1443 1447 1453 1457 1453 1458 1445 1437 1432 1428 1428 1427 1427 1429
1503 1502 1498 1493 1489 1487 1482 1476 1474 1470 1468 1456 1454 1451 1448 1446 1445 1445 1442 1434 1429 1421 1419 1418 1418 1413 1425 1421 1423 1428 1427 1431 1436 1443 1443 1444 1445 1431 1425 1427 1424 1425 1426 1426 1424
1501 1500 1498 1492 1490 1488 1481 1480 1474 1475 1464 1460 1457 1455 1447 1443 1442 1438 1438 1434 1433 1436 1429 1426 1425 1423 1425 1424 1428 1438 1427 1430 1433 1431 1432 1447 1432 1425 1425 1424 1423 1420 1422 1422 1421
Wind_Speed
19 19 19 19 20 20 21 21 21 21 21 21 20 20 21 23 22 23 25 16 9 10 16 12 10 8 7 4 5 2 2 2 3 7 4 11 5 9 4 19 5 9 12 30 35
19 19 20 20 20 20 21 21 21 21 21 21 21 20 21 23 25 25 19 13 12 16 16 13 15 12 5 2 3 3 2 5 5 7 8 14 14 15 6 16 5 10 17 37 35
22 22 22 22 21 21 21 21 21 22 21 21 20 19 19 19 23 7 7 8 4 13 14 9 11 11 5 5 7 5 5 4 7 16 24 19 8 8 17 4 10 29 38 40 35
23 24 24 24 25 25 24 24 22 22 22 21 20 18 17 14 6 5 8 1 12 14 17 17 13 6 4 5 7 3 15 10 4 14 19 16 18 7 12 3 15 26 46 43 38
24 25 25 26 26 27 26 26 25 24 22 21 20 18 16 12 26 11 9 17 22 6 23 16 15 8 4 5 3 5 6 12 17 27 18 22 8 4 10 4 14 33 41 40 38
26 27 27 28 28 28 28 27 27 26 23 21 19 18 15 9 20 17 18 22 18 9 18 20 11 13 5 4 2 4 10 6 20 20 16 12 7 9 6 10 24 39 38 37 37
28 29 29 30 30 30 30 28 29 26 22 21 19 17 19 33 12 8 3 8 8 11 14 18 13 6 5 3 4 4 3 7 6 14 6 17 1 4 17 22 28 32 34 32 32
30 31 32 31 31 31 30 29 27 24 20 18 17 16 15 18 19 32 28 16 10 8 11 9 8 12 9 4 3 2 4 4 4 10 8 11 5 5 24 29 26 27 27 29 33
32 33 33 33 33 32 30 25 23 17 12 6 10 11 12 12 19 23 24 25 22 20 13 7 8 6 4 3 3 5 5 4 3 10 7 4 3 10 26 26 25 27 26 27 32
33 35 36 35 34 32 26 20 13 12 5 3 5 5 13 4 5 5 12 24 18 17 12 8 6 3 2 4 6 5 4 4 6 8 8 5 2 12 23 24 27 28 28 29 30
33 34 35 35 34 31 20 13 8 3 8 10 5 9 5 7 8 5 8 19 18 15 7 8 4 8 11 11 4 5 5 7 4 4 5 3 4 13 19 19 20 24 27 32 34
36 35 34 34 34 22 25 7 12 12 17 27 29 36 36 30 9 10 9 12 9 6 7 4 8 8 4 2 5 4 4 3 1 5 6 5 1 10 18 22 25 25 27 34 34
36 37 37 33 31 10 20 8 18 24 7 21 26 23 33 32 19 23 17 14 7 8 8 7 4 12 7 5 6 4 6 5 6 5 4 5 3 6 12 19 22 25 29 30 37
35 35 37 35 17 29 13 17 20 15 4 8 5 7 15 18 9 41 22 15 4 12 10 6 6 13 7 7 6 6 7 6 6 4 4 5 5 5 7 16 17 28 31 35 39
33 34 34 31 26 20 18 15 17 1 6 2 3 1 10 17 9 22 37 17 9 8 9 9 8 11 13 16 10 9 8 9 4 3 4 1 1 6 8 12 20 28 33 37 45
32 32 30 23 23 20 19 12 7 3 8 6 3 2 4 6 4 9 18 17 13 6 3 9 5 10 9 5 11 7 6 8 5 4 1 6 6 7 7 10 11 21 34 40 40
33 31 27 12 24 19 15 4 2 5 7 7 5 6 5 5 4 7 13 11 9 8 6 4 8 3 7 6 3 6 7 2 2 1 6 0 5 12 7 7 14 17 36 41 43
33 30 10 13 21 17 5 4 3 3 7 6 7 11 5 1 7 7 13 15 3 7 5 8 7 11 5 9 8 8 9 6 4 4 4 4 6 11 3 14 24 30 32 34 38
34 28 1 18 20 13 1 2 7 3 6 9 10 4 5 5 4 6 9 22 20 11 8 7 7 1 6 5 10 4 5 7 7 4 3 4 7 10 5 8 7 20 22 34 42
37 24 4 21 18 2 3 6 5 3 8 5 4 4 4 7 7 5 8 13 9 9 7 7 4 5 8 6 1 8 10 4 3 6 4 5 4 6 4 7 11 6 22 33 35
29 13 13 24 6 1 3 6 5 7 11 4 4 6 5 5 4 4 2 6 2 10 7 7 4 4 7 8 9 4 4 5 6 5 7 2 8 8 9 10 11 13 18 29 34
18 4 16 22 3 3 2 8 9 5 3 8 4 7 6 6 5 4 4 4 14 3 15 8 6 5 9 2 7 8 9 7 6 4 1 4 11 6 9 9 11 23 18 22 29
19 7 11 15 4 5 8 6 6 5 4 3 3 2 6 4 5 4 4 3 19 9 5 8 3 3 2 4 3 6 5 6 7 4 8 7 12 3 5 7 8 10 4 12 24
8 4 7 5 5 4 6 7 5 11 6 4 4 6 5 4 7 6 5 6 18 6 8 1 5 14 11 4 6 4 5 5 8 6 6 7 2 4 4 5 9 14 13 7 14
4 2 3 4 4 6 6 4 8 7 7 7 3 5 5 4 5 3 3 6 5 11 6 3 11 7 10 6 6 6 8 9 6 7 13 8 8 10 9 10 11 13 16 14 13
5 4 5 10 12 5 4 1 5 6 4 4 3 12 6 2 2 5 7 3 3 7 6 6 1 5 9 10 8 4 11 15 9 6 5 6 10 9 18 24 21 22 17 20 22
5 7 6 6 6 3 3 4 4 7 8 16 10 8 6 1 11 22 20 20 8 4 4 4 2 4 13 8 6 8 8 7 5 5 10 8 10 6 7 9 21 26 20 21 22
Wind_Direction
343 339 335 331 328 325 321 316 308 301 298 298 297 297 298 297 293 290 288 295 275 217 221 218 191 170 178 205 218 258 40 253 190 165 181 163 122 148 143 142 147 183 173 168 159
345 341 336 333 329 324 321 318 316 311 302 295 293 294 297 300 300 291 291 274 246 221 211 204 187 181 186 224 201 150 138 234 207 158 173 165 146 155 129 157 88 117 155 159 163
347 343 340 335 331 326 321 316 313 309 305 301 292 290 293 301 312 293 141 57 225 204 202 202 185 177 207 212 197 187 222 222 253 185 159 154 141 158 141 215 185 152 156 162 168
346 342 339 335 332 328 323 318 312 307 303 299 295 287 286 289 272 190 187 37 19 176 181 179 167 179 200 215 197 189 242 228 141 156 148 158 151 142 168 228 205 180 166 166 173
347 342 338 335 331 327 323 318 313 306 299 294 290 286 281 258 245 233 256 277 292 284 187 178 180 193 199 212 226 202 270 254 176 165 160 147 161 172 206 328 174 171 169 173 176
348 343 338 334 331 327 323 319 313 304 295 287 281 276 264 247 268 260 253 254 260 232 201 197 203 212 223 239 187 285 304 76 173 153 146 136 141 140 198 163 160 170 175 178 182
348 344 341 338 333 327 323 322 313 305 293 280 270 261 252 247 252 258 244 208 204 197 195 202 203 198 181 255 268 310 86 63 92 138 143 123 145 218 165 163 157 168 174 182 191
349 346 342 339 337 330 325 324 316 310 299 277 255 250 251 272 246 244 244 228 239 243 204 205 217 243 239 301 12 66 63 107 198 136 164 165 255 146 167 160 166 172 179 187 195
349 347 343 341 339 333 332 325 319 317 317 278 222 215 261 257 249 239 231 231 240 239 202 161 174 207 184 150 32 1 158 146 183 166 154 212 238 159 170 168 174 178 186 195 200
349 347 343 342 341 337 338 332 310 310 321 277 210 227 242 225 283 238 221 224 214 188 176 179 186 122 39 114 193 187 145 142 185 193 165 176 226 158 173 176 185 187 193 202 211
348 345 341 340 343 342 343 350 341 292 303 244 253 255 229 217 226 248 218 189 184 176 153 173 133 192 196 191 148 145 129 165 230 200 138 218 161 175 183 189 192 196 198 208 215
349 347 342 338 340 346 356 62 31 333 298 289 273 257 252 258 298 229 205 154 164 161 129 84 206 205 202 186 133 127 120 176 235 166 146 131 269 187 191 206 196 199 204 210 216
346 346 344 341 338 359 359 15 346 331 253 290 257 247 243 235 225 242 192 168 147 143 167 156 227 159 156 181 175 178 165 168 159 108 53 120 304 182 207 213 211 214 215 217 216
343 344 345 343 343 336 347 320 334 328 309 272 243 251 193 195 234 229 209 175 159 177 136 192 198 168 171 183 148 196 177 155 153 115 188 146 260 239 204 213 214 214 212 217 222
344 345 345 345 339 347 325 317 326 158 321 240 196 65 186 180 159 204 204 199 163 159 131 220 173 165 178 197 160 216 154 162 132 112 93 348 76 261 179 227 222 219 214 217 222
342 345 342 339 343 339 325 322 315 56 246 311 75 26 122 255 304 118 170 196 181 121 110 192 180 163 194 155 169 170 86 49 53 103 51 209 160 269 188 212 234 218 216 216 218
339 344 337 339 345 340 323 333 38 197 328 338 342 358 311 225 233 176 177 168 161 138 164 162 209 202 154 112 113 84 85 28 25 78 210 242 134 241 249 226 223 209 210 212 214
338 342 351 354 343 341 327 61 222 267 284 347 333 307 224 170 246 203 170 181 229 113 134 157 200 179 195 172 166 169 154 148 152 192 224 96 223 246 243 225 235 234 223 212 209
342 342 98 353 336 334 214 112 208 262 333 319 320 333 316 338 16 182 191 193 189 162 145 142 233 197 173 145 140 184 159 175 104 7 101 214 286 304 311 293 259 236 210 206 212
345 340 6 343 335 286 99 224 240 243 349 343 322 5 313 314 359 12 175 193 183 174 138 199 171 218 191 117 147 151 169 124 16 134 201 283 276 235 277 296 297 268 214 211 220
351 337 349 344 325 171 188 231 262 276 344 329 319 325 285 297 326 301 304 1 186 179 143 145 118 222 122 194 160 141 162 60 112 138 167 209 260 203 227 247 264 279 272 223 219
350 339 341 359 44 35 335 319 306 304 292 249 242 231 250 300 298 292 306 16 350 302 185 199 144 186 194 176 170 165 174 146 138 196 124 157 255 197 220 237 264 276 294 229 223
332 293 357 9 52 343 319 297 279 310 292 331 292 338 292 267 293 271 275 348 16 23 194 178 195 135 103 9 354 179 172 121 105 96 184 156 244 267 270 262 290 296 285 215 220
334 343 338 12 354 359 317 311 307 307 280 337 273 340 335 262 211 269 324 314 344 0 333 153 154 195 206 205 134 133 143 158 154 174 165 224 175 278 257 260 287 323 334 301 226
350 313 330 302 332 318 302 282 310 341 328 312 356 360 301 289 310 260 336 315 312 353 360 100 207 181 193 161 154 155 172 169 162 170 195 222 214 245 247 262 259 290 316 312 283
331 333 314 288 292 298 290 319 305 337 305 309 16 330 302 285 138 295 14 274 286 325 12 352 288 132 197 201 183 202 189 180 185 157 206 174 239 209 246 249 280 278 286 290 277
308 296 288 273 307 324 283 345 306 345 280 255 308 320 302 222 311 280 258 258 260 328 315 17 78 133 211 160 118 242 207 167 169 183 181 193 227 193 236 231 243 259 264 264 291